Карточка аэропорта URWW

Внимание!
Информация на этой странице в стадии наполнения.
Если вы не увидели какой-то информации, или заметили неточность - пожалуйста сообщите нам!
Спасибо!
Команда RU-STAFF
Название аэропортаГумрак
Название аэропорта (англ.)Gumrak
Превышение482 ft. (146.9 m.)
Координаты48°46.95', 44°20.736'
Высота перехода3000 ft
Эшелон переходаFL40 (QNH >= 1013); FL50 (QNH 977-1012); FL60 (QNH < 977)
Коды ответчика1020-1027
Зона ОрВДРостов-на-Дону РПИ (URRV)
Данные METARURWW 250300Z 28003MPS CAVOK 16/14 Q1005 R23/010070 TEMPO 0300 FG OVC002
Проноз погоды (TAF)URWW 250200Z 2503/2512 30003G13MPS 6000 BKN016 SCT020CB TEMPO 2503/2505 33003G10MPS 0300 FG BKN002 SCT020CB TEMPO 2505/2512 33005G14MPS -SHRA PROB40 TEMPO 2505/2512 -TSRAGR BKN006 SCT020CB
NOTAMshow/hide NOTAM
AWOS   TABLE

Информация о ВПП

ВПП Длина ВПП (м.) Покрытие Курс ВПП Частота ILS
062800Асфальтобетон55111.7
242800Асфальтобетон235110.5

Диспетчерские позиции

Позывной Наименование органа УВД Частота
URWW_GNDВолгоград-Руление119.0
URWW_APPВолгоград-Подход125.3
URWW_TWRВолгоград-Вышка128.0



Спутниковое изображение